W8UFO-13 Weather Reports


Display with metric or nautical units.
time (UTC)temp
F
wind
direction
speed
MPH
gust
MPH
rain 1hr
in
rain 24hr
in
rain mn
in
humidity
%
barometer
mb
20260831185520 90 270 1.0 3.0 0.00 0.00 0.00 66 1022.7
20260831185020 89 90 1.0 1.0 0.00 0.00 0.00 71 1022.7
20260831184522 88 0.0 0.0 0.00 0.00 0.00 70 1022.8
20260831184022 87 293 1.0 3.0 0.00 0.00 0.00 70 1022.9
20260831183520 87 270 1.0 2.0 0.00 0.00 0.00 71 1022.9
20260831183021 87 0.0 0.0 0.00 0.00 0.00 71 1023.1
20260831182521 87 0.0 1.0 0.00 0.00 0.00 72 1023.2
20260831182019 87 270 1.0 2.0 0.00 0.00 0.00 71 1023.2
20260831181521 88 315 1.0 3.0 0.00 0.00 0.00 69 1023.4
20260831181021 88 0.0 0.0 0.00 0.00 0.00 71 1023.4
20260831180518 87 0.0 0.0 0.00 0.00 0.00 72 1023.4
20260831180018 87 0.0 1.0 0.00 0.00 0.00 71 1023.5
20260831175525 87 0.0 0.0 0.00 0.00 0.00 72 1023.5
20260831175021 87 0.0 1.0 0.00 0.00 0.00 72 1023.5
20260831174526 86 0.0 0.0 0.00 0.00 0.00 72 1023.5
20260831174019 86 0.0 0.0 0.00 0.00 0.00 70 1023.6
20260831173521 87 0.0 0.0 0.00 0.00 0.00 70 1023.6
20260831173018 87 0.0 0.0 0.00 0.00 0.00 70 1023.5
20260831172518 88 0.0 0.0 0.00 0.00 0.00 69 1023.7
20260831172022 88 225 1.0 2.0 0.00 0.00 0.00 69 1023.7
20260831171519 89 0.0 0.0 0.00 0.00 0.00 67 1023.7
20260831171021 90 135 1.0 2.0 0.00 0.00 0.00 66 1023.8
20260831170521 90 248 1.0 1.0 0.00 0.00 0.00 67 1023.8
20260831170023 90 158 1.0 2.0 0.00 0.00 0.00 66 1023.8
20260831165522 90 0 1.0 2.0 0.00 0.00 0.00 67 1023.7
20260831165019 89 270 1.0 2.0 0.00 0.00 0.00 67 1023.8
20260831164521 89 293 1.0 2.0 0.00 0.00 0.00 66 1024.0
20260831164022 89 180 1.0 5.0 0.00 0.00 0.00 69 1024.1
20260831163521 89 225 3.0 4.0 0.00 0.00 0.00 68 1024.2
20260831163019 89 180 2.0 5.0 0.00 0.00 0.00 68 1024.3
20260831162521 89 248 1.0 3.0 0.00 0.00 0.00 68 1024.3
20260831162021 89 180 1.0 2.0 0.00 0.00 0.00 67 1024.3
20260831161521 88 0.0 0.0 0.00 0.00 0.00 70 1024.3
20260831161021 88 135 3.0 6.0 0.00 0.00 0.00 69 1024.3
20260831160521 88 0.0 1.0 0.00 0.00 0.00 70 1024.1
20260831160018 88 0.0 1.0 0.00 0.00 0.00 72 1024.2
20260831155519 87 203 3.0 4.0 0.00 0.00 0.00 70 1024.1
20260831155020 87 0.0 2.0 0.00 0.00 0.00 71 1024.3
20260831154518 87 0.0 1.0 0.00 0.00 0.00 73 1024.2
20260831154023 86 248 2.0 4.0 0.00 0.00 0.00 73 1024.3
20260831153522 85 0.0 0.0 0.00 0.00 0.00 74 1024.3
20260831153020 85 180 1.0 2.0 0.00 0.00 0.00 73 1024.4
20260831152521 84 225 1.0 4.0 0.00 0.00 0.00 74 1024.3
20260831152021 84 0.0 1.0 0.00 0.00 0.00 76 1024.3
20260831151517 83 0.0 1.0 0.00 0.00 0.00 75 1024.2
20260831151020 83 0.0 1.0 0.00 0.00 0.00 76 1024.2
20260831150522 83 0.0 1.0 0.00 0.00 0.00 76 1024.2
20260831150022 83 0.0 1.0 0.00 0.00 0.00 79 1024.1
20260831145522 82 293 2.0 3.0 0.00 0.00 0.00 80 1024.2
20260831145021 82 180 2.0 3.0 0.00 0.00 0.00 79 1024.2
20260831144518 82 0.0 0.0 0.00 0.00 0.00 80 1024.3
20260831144020 81 0.0 0.0 0.00 0.00 0.00 79 1024.2
20260831143518 81 0.0 1.0 0.00 0.00 0.00 79 1024.2
20260831143022 81 203 1.0 2.0 0.00 0.00 0.00 80 1024.2
20260831142520 80 135 2.0 3.0 0.00 0.00 0.00 80 1024.0
20260831142019 80 293 1.0 2.0 0.00 0.00 0.00 80 1024.1
20260831141522 80 0.0 2.0 0.00 0.00 0.00 82 1024.1
20260831141020 80 293 1.0 2.0 0.00 0.00 0.00 83 1024.1
20260831140520 80 0.0 0.0 0.00 0.00 0.00 84 1024.1
20260831140018 80 0.0 0.0 0.00 0.00 0.00 84 1024.1
20260831135520 80 0.0 0.0 0.00 0.00 0.00 85 1024.2
20260831135024 80 0.0 0.0 0.00 0.00 0.00 85 1024.3
20260831134523 79 0.0 0.0 0.00 0.00 0.00 84 1024.1
20260831134021 79 0.0 0.0 0.00 0.00 0.00 85 1024.1
20260831133517 79 0.0 0.0 0.00 0.00 0.00 84 1024.1
20260831133021 79 0.0 0.0 0.00 0.00 0.00 85 1024.1
20260831132521 79 0.0 0.0 0.00 0.00 0.00 86 1024.0
20260831132022 80 0.0 0.0 0.00 0.00 0.00 85 1024.1
20260831131517 80 0.0 0.0 0.00 0.00 0.00 85 1024.1
20260831131023 80 0.0 0.0 0.00 0.00 0.00 88 1024.2
20260831130518 78 0.0 0.0 0.00 0.00 0.00 91 1024.1
20260831130019 77 0.0 0.0 0.00 0.00 0.00 94 1024.0
20260831125520 75 0.0 0.0 0.00 0.00 0.00 96 1023.9
20260831125019 74 0.0 0.0 0.00 0.00 0.00 98 1023.9
20260831124522 73 0.0 0.0 0.00 0.00 0.00 98 1023.8
20260831124022 72 0.0 0.0 0.00 0.00 0.00 98 1023.8
20260831123520 72 0.0 0.0 0.00 0.00 0.00 98 1023.7
20260831123019 71 0.0 0.0 0.00 0.00 0.00 98 1023.7
20260831122521 71 0.0 0.0 0.00 0.00 0.00 98 1023.6
20260831122018 71 0.0 1.0 0.00 0.00 0.00 98 1023.6
20260831121522 71 0.0 0.0 0.00 0.00 0.00 98 1023.6
20260831121021 71 0.0 0.0 0.00 0.00 0.00 98 1023.6
20260831120517 70 0.0 0.0 0.00 0.00 0.00 98 1023.5
20260831120022 70 0.0 0.0 0.00 0.00 0.00 98 1023.5
20260831115518 70 0.0 0.0 0.00 0.00 0.00 97 1023.4
20260831115017 70 0.0 0.0 0.00 0.00 0.00 98 1023.4
20260831114521 70 0.0 0.0 0.00 0.00 0.00 97 1023.4
20260831114022 70 0.0 0.0 0.00 0.00 0.00 97 1023.5
20260831113522 70 0.0 0.0 0.00 0.00 0.00 97 1023.2
20260831113021 70 0.0 0.0 0.00 0.00 0.00 97 1023.3
20260831112519 70 0.0 0.0 0.00 0.00 0.00 97 1023.2
20260831112017 70 0.0 0.0 0.00 0.00 0.00 97 1023.0
20260831111518 70 0.0 0.0 0.00 0.00 0.00 97 1023.1
20260831111020 70 0.0 0.0 0.00 0.00 0.00 97 1023.0
20260831110521 70 0.0 0.0 0.00 0.00 0.00 97 1023.2
20260831110019 70 0.0 0.0 0.00 0.00 0.00 97 1023.1
20260831105521 70 0.0 0.0 0.00 0.00 0.00 97 1023.1
20260831105020 70 0.0 0.0 0.00 0.00 0.00 97 1023.0
20260831104523 70 0.0 0.0 0.00 0.00 0.00 97 1023.0
20260831104017 70 0.0 0.0 0.00 0.00 0.00 97 1023.0
20260831103522 70 0.0 0.0 0.00 0.00 0.00 97 1023.0
20260831103018 70 0.0 0.0 0.00 0.00 0.00 97 1023.0
20260831102521 70 0.0 0.0 0.00 0.00 0.00 97 1023.0
20260831102018 71 0.0 0.0 0.00 0.00 0.00 97 1022.9
20260831101519 71 0.0 0.0 0.00 0.00 0.00 97 1022.8
20260831101021 71 0.0 0.0 0.00 0.00 0.00 97 1022.8
20260831100523 71 0.0 0.0 0.00 0.00 0.00 97 1022.7
20260831100021 71 0.0 0.0 0.00 0.00 0.00 97 1022.7
20260831095519 71 0.0 0.0 0.00 0.00 0.00 97 1022.6
20260831095021 71 0.0 0.0 0.00 0.00 0.00 97 1022.5
20260831094522 71 0.0 0.0 0.00 0.00 0.00 97 1022.5
20260831094017 71 0.0 0.0 0.00 0.00 0.00 97 1022.5
20260831093518 71 0.0 0.0 0.00 0.00 0.00 97 1022.6
20260831093018 71 0.0 0.0 0.00 0.00 0.00 97 1022.5
20260831092520 71 0.0 0.0 0.00 0.00 0.00 97 1022.5
20260831092019 71 0.0 0.0 0.00 0.00 0.00 97 1022.5
20260831091518 71 0.0 0.0 0.00 0.00 0.00 97 1022.5
20260831091021 71 0.0 0.0 0.00 0.00 0.00 96 1022.6
20260831090519 71 0.0 0.0 0.00 0.00 0.00 96 1022.6
20260831090024 71 0.0 0.0 0.00 0.00 0.00 96 1022.6
20260831085522 71 0.0 0.0 0.00 0.00 0.00 96 1022.5
20260831085020 71 0.0 0.0 0.00 0.00 0.00 96 1022.5
20260831084519 71 0.0 0.0 0.00 0.00 0.00 96 1022.5
20260831084021 71 0.0 0.0 0.00 0.00 0.00 96 1022.4
20260831083520 72 0.0 0.0 0.00 0.00 0.00 96 1022.4
20260831083019 72 0.0 0.0 0.00 0.00 0.00 96 1022.4
20260831082520 72 0.0 1.0 0.00 0.00 0.00 96 1022.3
20260831082022 72 0.0 0.0 0.00 0.00 0.00 96 1022.3
20260831081519 72 0.0 1.0 0.00 0.00 0.00 96 1022.3
20260831081021 72 0.0 1.0 0.00 0.00 0.00 96 1022.2
20260831080520 72 0.0 0.0 0.00 0.00 0.00 96 1022.2
20260831080021 72 0.0 0.0 0.00 0.00 0.00 96 1022.3
20260831075521 72 0.0 0.0 0.00 0.00 0.00 96 1022.2
20260831075021 72 0.0 0.0 0.00 0.00 0.00 96 1022.1
20260831074523 72 0.0 0.0 0.00 0.00 0.00 96 1022.2
20260831074021 72 0.0 0.0 0.00 0.00 0.00 96 1022.3
20260831073519 72 0.0 0.0 0.00 0.00 0.00 96 1022.2
20260831073021 72 0.0 0.0 0.00 0.00 0.00 95 1022.4
20260831072522 72 0.0 0.0 0.00 0.00 0.00 95 1022.3
20260831072020 72 0.0 0.0 0.00 0.00 0.00 95 1022.4
20260831071519 72 0.0 0.0 0.00 0.00 0.00 95 1022.3
20260831071021 72 0.0 0.0 0.00 0.00 0.00 95 1022.4
20260831070520 72 0.0 0.0 0.00 0.00 0.00 95 1022.3
20260831070021 73 0.0 0.0 0.00 0.00 0.00 95 1022.4
20260831065517 72 0.0 0.0 0.00 0.00 0.00 95 1022.3
20260831065019 72 0.0 0.0 0.00 0.00 0.00 94 1022.4
20260831064517 73 0.0 0.0 0.00 0.00 0.00 95 1022.4
20260831064021 73 0.0 0.0 0.00 0.00 0.00 94 1022.5
20260831063518 73 0.0 0.0 0.00 0.00 0.00 94 1022.6
20260831063019 73 0.0 0.0 0.00 0.00 0.00 94 1022.5
20260831062521 73 0.0 0.0 0.00 0.00 0.00 94 1022.5
20260831062021 73 0.0 0.0 0.00 0.00 0.00 94 1022.4
20260831061521 73 0.0 0.0 0.00 0.00 0.00 94 1022.5
20260831061017 73 0.0 0.0 0.00 0.00 0.00 94 1022.5
20260831060519 73 0.0 0.0 0.00 0.00 0.00 94 1022.6
20260831060021 73 0.0 0.0 0.00 0.00 0.00 94 1022.5
20260831055518 73 0.0 0.0 0.00 0.00 0.00 94 1022.4
20260831055021 73 0.0 0.0 0.00 0.00 0.00 94 1022.5
20260831054519 73 0.0 0.0 0.00 0.00 0.00 93 1022.5
20260831054022 74 0.0 0.0 0.00 0.00 0.00 94 1022.5
20260831053519 74 0.0 0.0 0.00 0.00 0.00 93 1022.5
20260831053021 74 0.0 0.0 0.00 0.00 0.00 93 1022.5
20260831052521 74 0.0 0.0 0.00 0.00 0.00 93 1022.5
20260831052018 74 0.0 0.0 0.00 0.00 0.00 93 1022.5
20260831051522 74 0.0 0.0 0.00 0.00 0.00 92 1022.4
20260831051022 74 0.0 0.0 0.00 0.00 0.00 92 1022.6
20260831050518 74 0.0 0.0 0.00 0.00 0.00 91 1022.5
20260831050020 74 0.0 0.0 0.00 0.00 0.00 92 1022.5
20260831045519 74 0.0 0.0 0.00 0.00 0.00 91 1022.3
20260831045021 74 0.0 0.0 0.00 0.00 0.00 91 1022.4
20260831044516 75 0.0 0.0 0.00 0.00 0.00 91 1022.3
20260831044020 75 0.0 0.0 0.00 0.00 0.00 91 1022.2
20260831043523 75 0.0 0.0 0.00 0.00 0.00 91 1022.3
20260831043017 75 0.0 0.0 0.00 0.00 0.00 90 1022.4
20260831042521 75 0.0 0.0 0.00 0.00 0.00 90 1022.3
20260831042020 75 0.0 0.0 0.00 0.00 0.00 90 1022.4
20260831041520 75 0.0 0.0 0.00 0.00 0.00 90 1022.5
20260831041022 75 0.0 0.0 0.00 0.00 0.00 90 1022.3
20260831040521 75 0.0 0.0 0.00 0.00 0.00 89 1022.3
20260831040025 75 0.0 0.0 0.00 0.00 0.00 89 1022.3
20260831035520 75 0.0 0.0 0.00 0.00 0.00 89 1022.3
20260831035020 75 0.0 0.0 0.00 0.00 0.00 89 1022.2
20260831034521 75 0.0 0.0 0.00 0.00 0.00 88 1022.4
20260831034018 76 0.0 0.0 0.00 0.00 0.00 88 1022.2
20260831033518 76 0.0 0.0 0.00 0.00 0.00 88 1022.3
20260831033017 76 0.0 0.0 0.00 0.00 0.00 88 1022.2
20260831032520 76 0.0 0.0 0.00 0.00 0.00 88 1022.4
20260831032016 76 0.0 0.0 0.00 0.00 0.00 87 1022.3
20260831031520 76 0.0 0.0 0.00 0.00 0.00 87 1022.3
20260831031020 76 0.0 0.0 0.00 0.00 0.00 87 1022.3
20260831030519 76 0.0 0.0 0.00 0.00 0.00 87 1022.4
20260831030016 76 0.0 0.0 0.00 0.00 0.00 86 1022.2
20260831025516 77 0.0 0.0 0.00 0.00 0.00 86 1022.3
20260831025017 77 0.0 0.0 0.00 0.00 0.00 86 1022.2
20260831024517 77 0.0 0.0 0.00 0.00 0.00 85 1022.2
20260831024019 77 0.0 0.0 0.00 0.00 0.00 85 1022.2
20260831023519 77 0.0 0.0 0.00 0.00 0.00 85 1022.0
20260831023019 77 0.0 0.0 0.00 0.00 0.00 85 1022.1
20260831022519 77 0.0 0.0 0.00 0.00 0.00 85 1022.1
20260831022016 77 0.0 0.0 0.00 0.00 0.00 84 1022.0
20260831021519 77 0.0 0.0 0.00 0.00 0.00 84 1022.1
20260831021019 78 0.0 0.0 0.00 0.00 0.00 84 1022.2
20260831020518 78 0.0 0.0 0.00 0.00 0.00 84 1022.2
20260831020020 78 0.0 0.0 0.00 0.00 0.00 83 1022.1
20260831015517 78 0.0 0.0 0.00 0.00 0.00 82 1022.1
20260831015022 78 0.0 0.0 0.00 0.00 0.00 82 1021.9
20260831014520 78 0.0 0.0 0.00 0.00 0.00 82 1021.7
20260831014018 78 0.0 0.0 0.00 0.00 0.00 82 1021.8
20260831013518 78 0.0 0.0 0.00 0.00 0.00 82 1021.7
20260831013020 79 0.0 0.0 0.00 0.00 0.00 81 1021.7
20260831012518 79 0.0 0.0 0.00 0.00 0.00 81 1021.7
20260831012016 79 0.0 0.0 0.00 0.00 0.00 81 1021.7
20260831011518 79 0.0 0.0 0.00 0.00 0.00 80 1021.7
20260831011017 79 0.0 0.0 0.00 0.00 0.00 80 1021.4
20260831010520 79 0.0 0.0 0.00 0.00 0.00 79 1021.4
20260831010019 80 0.0 0.0 0.00 0.00 0.00 79 1021.3
20260831005516 80 0.0 0.0 0.00 0.00 0.00 78 1021.2
20260831005018 80 0.0 0.0 0.00 0.00 0.00 78 1021.2
20260831004521 80 0.0 0.0 0.00 0.00 0.00 78 1021.1
20260831004017 81 0.0 0.0 0.00 0.00 0.00 77 1021.0
20260831003516 81 0.0 0.0 0.00 0.00 0.00 77 1020.9
20260831003020 81 0.0 0.0 0.00 0.00 0.00 76 1020.9
20260831002517 81 0.0 0.0 0.00 0.00 0.00 76 1020.9
20260831002020 82 0.0 0.0 0.00 0.00 0.00 75 1020.9
20260831001518 82 0.0 0.0 0.00 0.00 0.00 74 1020.8
20260831001019 82 0.0 0.0 0.00 0.00 0.00 73 1020.8
20260831000519 83 0.0 0.0 0.00 0.00 0.00 73 1020.9
20260831000020 83 0.0 1.0 0.00 0.00 0.00 72 1020.8
20260830235520 83 0.0 0.0 0.00 0.00 0.00 72 1020.8
20260830235016 84 0.0 0.0 0.00 0.00 0.00 72 1020.9
20260830234521 84 0.0 0.0 0.00 0.00 0.00 72 1020.9
20260830234018 84 0.0 0.0 0.00 0.00 0.00 72 1020.8
20260830233519 84 0.0 0.0 0.00 0.00 0.00 71 1020.8
20260830233018 85 0.0 0.0 0.00 0.00 0.00 70 1020.7
20260830232520 85 0.0 0.0 0.00 0.00 0.00 70 1020.7
20260830232018 85 0.0 0.0 0.00 0.00 0.00 70 1020.8
20260830231518 85 0.0 0.0 0.00 0.00 0.00 70 1020.8
20260830231016 86 0.0 0.0 0.00 0.00 0.00 70 1020.7
20260830230518 86 0.0 0.0 0.00 0.00 0.00 69 1020.8
20260830230017 87 0.0 0.0 0.00 0.00 0.00 66 1020.8
20260830225516 87 0.0 0.0 0.00 0.00 0.00 66 1020.8
20260830225020 88 0.0 0.0 0.00 0.00 0.00 66 1020.7
20260830224524 88 0.0 0.0 0.00 0.00 0.00 62 1020.7
20260830224023 89 0.0 0.0 0.00 0.00 0.00 62 1020.8
20260830223518 89 0.0 1.0 0.00 0.00 0.00 61 1020.9
20260830223021 89 270 1.0 2.0 0.00 0.00 0.00 60 1020.9
20260830222524 89 0.0 1.0 0.00 0.00 0.00 62 1020.9
20260830222022 89 338 1.0 1.0 0.00 0.00 0.00 59 1020.9
20260830221518 90 0.0 0.0 0.00 0.00 0.00 60 1020.9
20260830221022 90 338 1.0 2.0 0.00 0.00 0.00 58 1020.9
20260830220519 91 0.0 1.0 0.00 0.00 0.00 60 1021.0
20260830220021 91 293 1.0 3.0 0.00 0.00 0.00 57 1021.1
20260830215520 91 0.0 1.0 0.00 0.00 0.00 57 1021.0
20260830215021 91 248 1.0 3.0 0.00 0.00 0.00 57 1021.0
20260830214521 92 0.0 1.0 0.00 0.00 0.00 57 1021.0
20260830214018 92 248 1.0 2.0 0.00 0.00 0.00 57 1021.0
20260830213520 92 225 1.0 1.0 0.00 0.00 0.00 58 1021.1
20260830213021 93 0.0 0.0 0.00 0.00 0.00 58 1021.3
20260830212519 93 225 2.0 2.0 0.00 0.00 0.00 56 1021.2
20260830212021 94 0.0 0.0 0.00 0.00 0.00 55 1021.3
20260830211520 94 0.0 0.0 0.00 0.00 0.00 56 1021.3
20260830211018 94 0.0 0.0 0.00 0.00 0.00 57 1021.3
20260830210520 93 0.0 1.0 0.00 0.00 0.00 61 1021.2
20260830210020 93 0.0 1.0 0.00 0.00 0.00 58 1021.2
20260830205521 92 0.0 0.0 0.00 0.00 0.00 64 1021.4
20260830205020 93 0.0 0.0 0.00 0.00 0.00 58 1021.3
20260830204520 94 0.0 1.0 0.00 0.00 0.00 56 1021.4
20260830204017 94 135 1.0 1.0 0.00 0.00 0.00 59 1021.5
20260830203518 94 90 2.0 3.0 0.00 0.00 0.00 57 1021.5
20260830203020 94 90 2.0 3.0 0.00 0.00 0.00 56 1021.4
20260830202520 94 0.0 1.0 0.00 0.00 0.00 59 1021.5
20260830202022 93 0.0 1.0 0.00 0.00 0.00 59 1021.4
20260830201522 93 0.0 0.0 0.00 0.00 0.00 60 1021.6
20260830201020 93 0.0 0.0 0.00 0.00 0.00 58 1021.7
20260830200523 93 0.0 0.0 0.00 0.00 0.00 60 1021.8
20260830200017 92 0.0 1.0 0.00 0.00 0.00 60 1021.8
20260830195517 92 180 1.0 1.0 0.00 0.00 0.00 60 1022.0
20260830195022 92 180 3.0 5.0 0.00 0.00 0.00 60 1022.1
20260830194517 92 225 2.0 4.0 0.00 0.00 0.00 62 1022.1
20260830194021 91 90 1.0 3.0 0.00 0.00 0.00 62 1022.2
20260830193520 91 248 1.0 2.0 0.00 0.00 0.00 61 1022.3
20260830193018 90 0.0 1.0 0.00 0.00 0.00 64 1022.3
20260830192517 89 0.0 0.0 0.00 0.00 0.00 66 1022.4
20260830192021 90 90 1.0 4.0 0.00 0.00 0.00 60 1022.6
20260830191520 91 0.0 1.0 0.00 0.00 0.00 60 1022.6
20260830191023 92 180 1.0 2.0 0.00 0.00 0.00 61 1022.7
20260830190517 93 0.0 0.0 0.00 0.00 0.00 60 1022.8
20260830190023 93 0.0 2.0 0.00 0.00 0.00 64 1022.8